TimeEDT,TemperatureF,Dew PointF,Humidity,Sea Level PressureIn,VisibilityMPH,Wind Direction,Wind SpeedMPH,Gust SpeedMPH,PrecipitationIn,Events,Conditions,WindDirDegrees,DateUTC
12:51 AM,61.0,59.0,93,30.15,5.0,SSE,3.5,-,N/A,,Clear,150,2013-08-20 04:51:00
1:51 AM,61.0,59.0,93,30.13,5.0,Calm,Calm,-,N/A,,Clear,0,2013-08-20 05:51:00
2:10 AM,60.8,57.2,88,30.21,1.8,Calm,Calm,-,N/A,,Partly Cloudy,0,2013-08-20 06:10:00
2:25 AM,60.8,57.2,88,30.20,2.5,Calm,Calm,-,N/A,,Partly Cloudy,0,2013-08-20 06:25:00
2:36 AM,60.8,57.2,88,30.20,3.0,Calm,Calm,-,N/A,,Partly Cloudy,0,2013-08-20 06:36:00
2:51 AM,59.0,57.0,93,30.13,5.0,Calm,Calm,-,N/A,,Clear,0,2013-08-20 06:51:00
3:07 AM,59.0,57.2,94,30.20,1.5,Calm,Calm,-,N/A,,Clear,0,2013-08-20 07:07:00
3:20 AM,59.0,57.2,94,30.20,3.0,Calm,Calm,-,N/A,,Clear,0,2013-08-20 07:20:00
3:51 AM,59.0,57.0,93,30.13,2.5,Calm,Calm,-,N/A,,Clear,0,2013-08-20 07:51:00
3:55 AM,59.0,57.2,94,30.20,0.8,Calm,Calm,-,N/A,,Clear,0,2013-08-20 07:55:00
4:12 AM,59.0,57.2,94,30.20,1.5,Calm,Calm,-,N/A,,Clear,0,2013-08-20 08:12:00
4:17 AM,59.0,57.2,94,30.20,3.0,Calm,Calm,-,N/A,,Clear,0,2013-08-20 08:17:00
4:26 AM,57.2,55.4,94,30.20,1.5,Calm,Calm,-,N/A,,Clear,0,2013-08-20 08:26:00
4:37 AM,57.2,55.4,94,30.20,0.8,Calm,Calm,-,N/A,,Clear,0,2013-08-20 08:37:00
4:43 AM,57.2,55.4,94,30.20,2.5,Calm,Calm,-,N/A,,Clear,0,2013-08-20 08:43:00
4:51 AM,57.9,55.9,93,30.13,4.0,Calm,Calm,-,N/A,,Clear,0,2013-08-20 08:51:00
5:04 AM,57.2,55.4,94,30.20,1.8,Calm,Calm,-,N/A,,Clear,0,2013-08-20 09:04:00
5:11 AM,57.2,55.4,94,30.20,2.0,Calm,Calm,-,N/A,,Partly Cloudy,0,2013-08-20 09:11:00
5:20 AM,57.2,55.4,94,30.20,1.0,Calm,Calm,-,N/A,,Mist,0,2013-08-20 09:20:00
5:28 AM,57.2,55.4,94,30.20,0.2,Calm,Calm,-,N/A,Fog,Fog,0,2013-08-20 09:28:00
5:51 AM,55.9,55.0,97,30.14,0.8,Calm,Calm,-,N/A,,Mist,0,2013-08-20 09:51:00
5:59 AM,55.4,55.4,100,30.21,1.0,Calm,Calm,-,N/A,,Mist,0,2013-08-20 09:59:00
6:04 AM,57.2,55.4,94,30.21,2.0,Calm,Calm,-,N/A,,Partly Cloudy,0,2013-08-20 10:04:00
6:12 AM,57.2,55.4,94,30.21,6.0,Calm,Calm,-,N/A,,Clear,0,2013-08-20 10:12:00
6:51 AM,57.0,55.0,93,30.16,4.0,Calm,Calm,-,N/A,,Clear,0,2013-08-20 10:51:00
7:51 AM,59.0,57.9,96,30.17,6.0,Calm,Calm,-,N/A,,Clear,0,2013-08-20 11:51:00
8:17 AM,62.6,59.0,88,30.24,2.5,Calm,Calm,-,N/A,,Clear,0,2013-08-20 12:17:00
8:26 AM,62.6,60.8,94,30.24,5.0,Calm,Calm,-,N/A,,Clear,0,2013-08-20 12:26:00
8:51 AM,66.0,62.1,87,30.18,7.0,Calm,Calm,-,N/A,,Clear,0,2013-08-20 12:51:00
9:51 AM,71.1,63.0,75,30.18,10.0,Calm,Calm,-,N/A,,Clear,0,2013-08-20 13:51:00
10:51 AM,73.0,62.1,68,30.19,10.0,North,4.6,-,N/A,,Clear,360,2013-08-20 14:51:00
11:51 AM,75.0,61.0,62,30.19,10.0,Calm,Calm,-,N/A,,Clear,0,2013-08-20 15:51:00
12:51 PM,77.0,59.0,54,30.19,10.0,North,4.6,-,N/A,,Mostly Cloudy,10,2013-08-20 16:51:00
1:51 PM,79.0,62.1,56,30.18,10.0,Calm,Calm,-,N/A,,Mostly Cloudy,0,2013-08-20 17:51:00
2:51 PM,79.0,59.0,50,30.17,10.0,Calm,Calm,-,N/A,,Mostly Cloudy,0,2013-08-20 18:51:00
3:51 PM,78.1,57.9,50,30.14,10.0,NW,3.5,-,N/A,,Clear,320,2013-08-20 19:51:00
4:51 PM,82.0,61.0,49,30.12,10.0,North,4.6,-,N/A,,Clear,350,2013-08-20 20:51:00
5:51 PM,78.1,60.1,54,30.13,10.0,NNE,4.6,-,N/A,,Partly Cloudy,20,2013-08-20 21:51:00
6:51 PM,78.1,60.1,54,30.13,10.0,NNE,4.6,-,N/A,,Partly Cloudy,20,2013-08-20 22:51:00
7:51 PM,75.0,63.0,66,30.15,10.0,ENE,3.5,-,N/A,,Overcast,70,2013-08-20 23:51:00
8:51 PM,73.0,63.0,71,30.14,10.0,SE,3.5,-,N/A,,Mostly Cloudy,130,2013-08-21 00:51:00
9:51 PM,71.1,64.0,78,30.16,10.0,SE,8.1,-,N/A,,Partly Cloudy,140,2013-08-21 01:51:00
10:51 PM,69.1,64.9,87,30.16,10.0,South,3.5,-,N/A,,Clear,180,2013-08-21 02:51:00
11:51 PM,69.1,64.9,87,30.16,10.0,SSE,4.6,-,N/A,,Clear,160,2013-08-21 03:51:00